Fort Stewart, GA

9:09 AM EST on February 20, 2017 (GMT -0500)
Wright Army Air Field

Weather History for KLHW - August, 2011

Change the Weather History Date:

Sunday, August 7, 2011

  Actual Average Record
Temperature  
Mean Temperature 86 °F -  
Max Temperature 98 °F 92 °F 98 °F (1968)
Min Temperature 74 °F 71 °F 66 °F (1964)
Cooling Degree Days 20    
Growing Degree Days 36 (Base 50)    
Moisture  
Dew Point 74 °F    
Average Humidity 76    
Maximum Humidity 100    
Minimum Humidity 43    
Precipitation  
Precipitation 0.00 in - - ()
Sea Level Pressure  
Sea Level Pressure 29.88 in    
Wind  
Wind Speed 3 mph (WSW)    
Max Wind Speed 12 mph    
Max Gust Speed -    
Visibility 9 miles    
Events      
Averages and records for this station are not official NWS values.
T = Trace of Precipitation, MM = Missing Value Source: NWS Daily Summary

Daily Weather History Graph

Daily Weather History Graph

Search for Another Location

Airport or City:

Trip Planner

Search our weather history database for the weather conditions in past years. The results will help you decide how hot, cold, wet, or windy it might be!

Date:

Astronomy

Aug. 07, 2011 Rise Set
Actual Time 6:45 AM EDT 8:18 PM EDT
Civil Twilight 6:19 AM EDT 8:44 PM EDT
Nautical Twilight 5:47 AM EDT 9:15 PM EDT
Astronomical Twilight 5:14 AM EDT 9:48 PM EDT
Moon 3:21 PM EDT (8/7) 12:52 AM EDT (8/7)
Length of Visible Light 14h 24m
Length of Day
13h 32m
Waxing Gibbous, 63% of the Moon is Illuminated
Aug 7
Waxing Gibbous
Aug 13
Full
Aug 21
Last Quarter
Aug 28
New
Sep 4
First Quarter

Hourly Weather History & Observations

Time (EDT) Temp. Heat Index Dew Point Humidity Pressure Visibility Wind Dir Wind Speed Gust Speed Precip Events Conditions
12:55 AM 77.4 °F - 74.8 °F 92% 29.93 in 10.0 mi Calm Calm - N/A   Clear
1:47 AM 77.0 °F - 75.2 °F 94% 29.91 in 8.0 mi Calm Calm - N/A   Partly Cloudy
1:55 AM 76.5 °F - 75.0 °F 95% 29.91 in 9.0 mi Calm Calm - N/A   Scattered Clouds
1:56 AM 77.0 °F - 75.2 °F 94% 29.91 in 9.0 mi SE 3.5 mph - N/A   Scattered Clouds
2:55 AM 75.9 °F - 74.8 °F 96% 29.89 in 10.0 mi Calm Calm - N/A   Clear
3:55 AM 75.6 °F - 74.7 °F 97% 29.89 in 10.0 mi Calm Calm - N/A   Clear
4:41 AM 75.2 °F - 75.2 °F 100% 29.89 in 7.0 mi Calm Calm - N/A   Clear
4:47 AM 75.2 °F - 75.2 °F 100% 29.89 in 8.0 mi South 3.5 mph - N/A   Clear
4:55 AM 75.0 °F - 74.5 °F 98% 29.89 in 9.0 mi Calm Calm - N/A   Clear
5:14 AM 75.2 °F - 73.4 °F 94% 29.89 in 7.0 mi Calm Calm - N/A   Clear
5:42 AM 75.2 °F - 73.4 °F 94% 29.90 in 7.0 mi Calm Calm - N/A   Clear
5:55 AM 74.7 °F - 74.3 °F 99% 29.90 in 10.0 mi Calm Calm - N/A   Clear
6:55 AM 74.7 °F - 74.3 °F 99% 29.91 in 8.0 mi Calm Calm - N/A   Clear
7:55 AM 76.8 °F - 76.3 °F 98% 29.93 in 10.0 mi SSW 3.5 mph - N/A   Clear
8:55 AM 80.1 °F 85.4 °F 75.9 °F 87% 29.94 in 10.0 mi SW 5.8 mph - N/A   Clear
9:55 AM 85.1 °F 93.3 °F 74.7 °F 71% 29.94 in 10.0 mi Variable 4.6 mph - N/A   Clear
10:55 AM 88.9 °F 98.6 °F 74.8 °F 63% 29.94 in 10.0 mi Variable 6.9 mph - N/A   Clear
11:55 AM 91.8 °F 101.5 °F 74.1 °F 56% 29.94 in 10.0 mi West 10.4 mph - N/A   Clear
12:55 PM 94.1 °F 103.8 °F 73.4 °F 51% 29.91 in 10.0 mi NW 9.2 mph - N/A   Clear
1:55 PM 95.2 °F 105.6 °F 73.8 °F 50% 29.89 in 10.0 mi NW 9.2 mph - N/A   Partly Cloudy
2:55 PM 96.3 °F 106.0 °F 73.2 °F 47% 29.87 in 10.0 mi WNW 9.2 mph - N/A   Clear
3:55 PM 97.3 °F 105.6 °F 71.4 °F 43% 29.83 in 10.0 mi NW 8.1 mph - N/A   Partly Cloudy
4:55 PM 97.0 °F 105.5 °F 72.0 °F 44% 29.82 in 10.0 mi NW 8.1 mph - N/A   Partly Cloudy
5:55 PM 96.3 °F 103.3 °F 70.3 °F 43% 29.82 in 10.0 mi WNW 4.6 mph - N/A   Clear
6:55 PM 95.4 °F 103.3 °F 71.6 °F 46% 29.83 in 10.0 mi WSW 8.1 mph - N/A   Clear
7:55 PM 91.9 °F 100.7 °F 73.2 °F 54% 29.82 in 10.0 mi SW 4.6 mph - N/A   Scattered Clouds
8:55 PM 88.3 °F 96.4 °F 73.6 °F 61% 29.83 in 10.0 mi WSW 4.6 mph - N/A   Partly Cloudy
9:55 PM 86.2 °F 94.2 °F 74.1 °F 67% 29.83 in 10.0 mi Calm Calm - N/A   Clear
10:55 PM 85.1 °F 92.9 °F 74.1 °F 70% 29.84 in 10.0 mi SW 9.2 mph - N/A   Clear
11:55 PM 83.8 °F 91.8 °F 75.2 °F 75% 29.84 in 10.0 mi WSW 11.5 mph - N/A   Overcast